Weather History for West Palm Beach, FL

Change the Weather History Date:

Thursday, December 26, 2013

  Actual Average Record
Temperature  
Mean Temperature 76 °F 67 °F  
Max Temperature 79 °F 75 °F 87 °F (1941)
Min Temperature 73 °F 58 °F 30 °F (1983)
Degree Days  
Heating Degree Days 0 3  
Month to date heating degree days 0 43  
Since 1 July heating degree days 4 55  
Cooling Degree Days 11 4  
Month to date cooling degree days 240 135  
Year to date cooling degree days 4441 4001  
Growing Degree Days 25 (Base 50)    
Moisture  
Dew Point 66 °F    
Average Humidity 73    
Maximum Humidity 79    
Minimum Humidity 67    
Precipitation  
Precipitation 0.00 in 0.11 in 3.40 in (1991)
Month to date precipitation 4.21 2.83  
Year to date precipitation 64.85 61.78  
Snow  
Snow 0.00 in - - ()
Month to date snowfall 0.0  
Since 1 July snowfall 0.0  
Snow Depth 0.00 in    
Sea Level Pressure  
Sea Level Pressure 30.12 in    
Wind  
Wind Speed 9 mph (ENE)    
Max Wind Speed 16 mph    
Max Gust Speed 21 mph    
Visibility 10 miles    
Events      
T = Trace of Precipitation, MM = Missing Value Source: NWS Daily Summary

Daily Weather History Graph

Daily Weather History Graph

Search for Another Location

Airport:

Trip Planner

Search our weather history database for the weather conditions in past years. The results will help you decide how hot, cold, wet, or windy it might be!

Date:

Astronomy

Dec. 26, 2013 Rise Set
Actual Time 7:07 AM EST 5:35 PM EST
Civil Twilight 6:41 AM EST 6:00 PM EST
Nautical Twilight 6:12 AM EST 6:29 PM EST
Astronomical Twilight 5:44 AM EST 6:58 PM EST
Moon 12:58 AM EST (12/26) 12:48 PM EST (12/26)
Length of Visible Light 11h 19m
Length of Day
10h 28m
Last Quarter, 38% of the Moon is Illuminated
Dec 26
Last Quarter
Jan 1
New
Jan 7
First Quarter
Jan 15
Full
Jan 24
Last Quarter

Hourly Weather History & Observations

Time (EST) Temp. Dew Point Humidity Pressure Visibility Wind Dir Wind Speed Gust Speed Precip Events Conditions
12:53 AM 73.0 °F 64.0 °F 73% 30.12 in 10.0 mi ENE 11.5 mph - N/A   Mostly Cloudy
1:53 AM 73.0 °F 64.0 °F 73% 30.10 in 10.0 mi East 10.4 mph - N/A   Mostly Cloudy
2:53 AM 73.9 °F 64.9 °F 73% 30.10 in 10.0 mi ENE 10.4 mph - N/A   Scattered Clouds
3:53 AM 73.9 °F 64.9 °F 73% 30.10 in 10.0 mi ENE 9.2 mph - N/A   Mostly Cloudy
4:53 AM 73.9 °F 64.9 °F 73% 30.10 in 10.0 mi ENE 9.2 mph - N/A   Mostly Cloudy
5:53 AM 73.9 °F 66.0 °F 76% 30.10 in 10.0 mi ENE 9.2 mph - N/A   Mostly Cloudy
6:53 AM 73.9 °F 64.9 °F 73% 30.12 in 10.0 mi ENE 8.1 mph - N/A   Mostly Cloudy
7:53 AM 75.0 °F 66.0 °F 73% 30.14 in 10.0 mi ENE 9.2 mph - N/A   Mostly Cloudy
8:53 AM 75.9 °F 66.0 °F 71% 30.16 in 10.0 mi ENE 9.2 mph - N/A   Mostly Cloudy
9:53 AM 75.9 °F 66.0 °F 71% 30.17 in 10.0 mi ENE 10.4 mph - N/A   Overcast
10:53 AM 77.0 °F 66.9 °F 71% 30.17 in 10.0 mi ENE 9.2 mph - N/A   Overcast
11:53 AM 78.1 °F 66.0 °F 66% 30.14 in 10.0 mi ENE 10.4 mph - N/A   Mostly Cloudy
12:53 PM 79.0 °F 66.9 °F 66% 30.12 in 10.0 mi East 10.4 mph - N/A   Mostly Cloudy
1:53 PM 78.1 °F 66.9 °F 68% 30.09 in 10.0 mi ENE 10.4 mph - N/A   Mostly Cloudy
2:53 PM 78.1 °F 66.9 °F 68% 30.08 in 10.0 mi ENE 10.4 mph - N/A   Overcast
3:53 PM 77.0 °F 66.9 °F 71% 30.07 in 10.0 mi East 10.4 mph - N/A   Mostly Cloudy
4:53 PM 77.0 °F 66.9 °F 71% 30.08 in 10.0 mi ENE 9.2 mph - N/A   Mostly Cloudy
5:53 PM 77.0 °F 66.9 °F 71% 30.09 in 10.0 mi NE 5.8 mph - N/A   Mostly Cloudy
6:53 PM 77.0 °F 66.9 °F 71% 30.10 in 10.0 mi ENE 5.8 mph - N/A   Mostly Cloudy
7:53 PM 77.0 °F 66.0 °F 69% 30.11 in 10.0 mi NE 8.1 mph - N/A   Mostly Cloudy
8:53 PM 75.9 °F 66.0 °F 71% 30.12 in 10.0 mi ENE 8.1 mph - N/A   Scattered Clouds
9:53 PM 75.9 °F 66.9 °F 74% 30.13 in 10.0 mi ENE 10.4 mph - N/A   Scattered Clouds
10:53 PM 75.9 °F 66.9 °F 74% 30.14 in 10.0 mi ENE 9.2 mph - N/A   Scattered Clouds
11:53 PM 77.0 °F 66.0 °F 69% 30.14 in 10.0 mi ENE 8.1 mph - N/A   Mostly Cloudy